This is the latest recevied weather packets stored in our database for station/object YT6PT-8. If no packets are shown the sender has not sent any weather packets the latest 10 day(s).
| Time | Temp. | Humidity | Pressure | Rain* | Wind** | Luminosity | Snow |
|---|---|---|---|---|---|---|---|
| 1787844932 | 26.67° C | 45% | 1009.8 hPa | 0 mm | 0.89 m/s, 68° | - | - |
| 1787844632 | 26.67° C | 45% | 1009.8 hPa | 0 mm | 0.89 m/s, 68° | - | - |
| 1787844351 | 27.22° C | 44% | 1009.9 hPa | 0 mm | 0.45 m/s, 90° | - | - |
| 1787844054 | 27.22° C | 44% | 1009.9 hPa | 0 mm | 0.45 m/s, 90° | - | - |
| 1787843749 | 27.78° C | 44% | 1010 hPa | 0 mm | 0.89 m/s, 22° | - | - |
| 1787843452 | 27.78° C | 44% | 1010 hPa | 0 mm | 0.89 m/s, 22° | - | - |
| 1787843152 | 27.78° C | 42% | 1010 hPa | 0 mm | 1.34 m/s, 338° | - | - |
| 1787842857 | 27.78° C | 42% | 1010 hPa | 0 mm | 1.34 m/s, 338° | - | - |
| 1787842533 | 28.33° C | 41% | 1010.2 hPa | 0 mm | 1.79 m/s, 0° | - | - |
| 1787842233 | 28.33° C | 41% | 1010.2 hPa | 0 mm | 1.79 m/s, 0° | - | - |
| 1787841933 | 27.78° C | 40% | 1010.1 hPa | 0 mm | 0.89 m/s, 338° | - | - |
| 1787841634 | 27.78° C | 40% | 1010.1 hPa | 0 mm | 0.89 m/s, 338° | - | - |
| 1787841332 | 27.78° C | 40% | 1010.1 hPa | 0 mm | 1.34 m/s, 0° | - | - |
| 1787841032 | 27.78° C | 40% | 1010.1 hPa | 0 mm | 1.34 m/s, 0° | - | - |
| 1787840732 | 27.22° C | 42% | 1010.1 hPa | 0 mm | 2.24 m/s, 315° | - | - |
| 1787840432 | 27.22° C | 42% | 1010.1 hPa | 0 mm | 2.24 m/s, 315° | - | - |
| 1787840132 | 27.78° C | 42% | 1010 hPa | 0 mm | 1.34 m/s, 22° | - | - |
| 1787839833 | 27.78° C | 42% | 1010 hPa | 0 mm | 1.34 m/s, 22° | - | - |
| 1787839532 | 27.78° C | 43% | 1010 hPa | 0 mm | 1.79 m/s, 0° | - | - |
| 1787838951 | 27.22° C | 44% | 1010.2 hPa | 0 mm | 0.89 m/s, 45° | - | - |
| 1787838651 | 27.22° C | 44% | 1010.2 hPa | 0 mm | 0.89 m/s, 45° | - | - |
| 1787838333 | 27.22° C | 44% | 1010.2 hPa | 0 mm | 1.34 m/s, 22° | - | - |
| 1787838031 | 27.22° C | 44% | 1010.2 hPa | 0 mm | 1.34 m/s, 22° | - | - |
| 1787837733 | 27.22° C | 45% | 1010.2 hPa | 0 mm | 2.24 m/s, 315° | - | - |
| 1787837432 | 27.22° C | 45% | 1010.2 hPa | 0 mm | 2.24 m/s, 315° | - | - |
* Rain latest hour (hover to see other rain measurements)
** Current wind speed in m/s (hover to see current wind gust speed)